Location: Chircca
(13.7944°S, 72.0608°W)
Time: 05:06:06
(UTC+00:00)

Cosmos 1300 - Pass Details

Date: 14 July 2020
Orbit: 511 x 514 km, 82.5° (Epoch: 14 August)

Event Time Altitude Azimuth Distance (km) Brightness Sun altitude
Rises 00:15:24 0° 352° (N) 2,606 6.6 -23.7°
Reaches altitude 10° 00:17:31 10° 350° (N) 1,726 5.7 -24.1°
Enters shadow 00:20:28 51° 331° (NNW) 648 3.3 -24.8°
